Stations météo

réclame
Mon MeteoGroup
Fairford Royal Air Force Base, Grande-Bretagne (3644): Température de l'air & dewpoint: 30.11.2019 04:00:00 - 06.12.2019 04:00:00 (GMT)Fairford Royal Air Force Base, Grande-Bretagne (3644): Vitesse du vent & gusts: 30.11.2019 04:00:00 - 06.12.2019 04:00:00 (GMT)Fairford Royal Air Force Base, Grande-Bretagne (3644): Direction du vent: 30.11.2019 04:00:00 - 06.12.2019 04:00:00 (GMT)Fairford Royal Air Force Base, Grande-Bretagne (3644): reduced air pressure: 30.11.2019 04:00:00 - 06.12.2019 04:00:00 (GMT)Fairford Royal Air Force Base, Grande-Bretagne (3644): visibility: 30.11.2019 04:00:00 - 06.12.2019 04:00:00 (GMT)Fairford Royal Air Force Base, Grande-Bretagne (3644): Quantités de précipitations: 30.11.2019 04:00:00 - 06.12.2019 04:00:00 (GMT)
Date & Time tt [°C] td [°C] ff [km/h] ff [knt] fx [km/h] fx [knt] dd ppp [hPa] vv [km] rr [mm]
06.12.2019 04:00:00 10,3 10,3 34 18 - - SW 1007,5 10 -
06.12.2019 03:00:00 10,0 10,0 29 16 - - SW 1007,9 10 -
06.12.2019 02:00:00 9,8 9,8 26 14 - - SW 1008,2 10 0,0
06.12.2019 01:00:00 9,6 9,6 31 17 - - SW 1009,3 10 0,0
06.12.2019 00:00:00 9,8 9,0 34 18 48 26 SW 1010,0 10 -
05.12.2019 23:00:00 9,8 8,7 29 16 - - SW 1011,0 10 -
05.12.2019 22:00:00 9,6 8,2 24 13 52 28 WSW 1011,7 10 -
05.12.2019 21:00:00 8,6 6,9 28 15 - - SW 1012,5 10 -
05.12.2019 20:00:00 8,3 6,1 24 13 - - SW 1013,5 10 -
05.12.2019 19:00:00 8,0 5,1 24 13 - - SW 1013,8 10 -
05.12.2019 18:00:00 7,3 4,8 31 17 - - SW 1014,2 10 -
05.12.2019 17:00:00 7,1 5,2 22 12 - - SW 1014,9 10 -
05.12.2019 16:00:00 7,1 7,0 24 13 - - SW 1015,3 10 0,0
05.12.2019 15:00:00 7,3 7,3 24 13 - - SW 1015,9 10 0,0
05.12.2019 14:00:00 7,3 7,3 21 11 - - SW 1017,0 10 -
05.12.2019 13:00:00 6,9 6,9 24 13 - - SW 1018,0 10 -
05.12.2019 12:00:00 4,9 4,9 18 10 - - SW 1019,4 10 -
05.12.2019 11:00:00 3,4 3,4 11 6 - - SW 1020,1 1,8 -
05.12.2019 10:00:00 2,1 2,1 5 3 - - WSW 1020,8 10 -
05.12.2019 09:00:00 1,0 1,0 8 4 - - W 1020,9 10 -
05.12.2019 08:00:00 1,7 1,7 0 0 - - N 1021,5 10 -
05.12.2019 07:00:00 1,0 1,0 5 3 - - WSW 1021,1 10 -
05.12.2019 06:00:00 0,3 0,3 5 3 - - W 1020,8 10 -
05.12.2019 05:00:00 -0,3 -0,4 9 5 - - W 1020,8 10 -
05.12.2019 04:00:00 -0,9 -1,0 0 0 - - N 1020,7 10 -
05.12.2019 03:00:00 -1,8 -1,9 0 0 - - N 1021,1 10 -
05.12.2019 02:00:00 -2,1 -2,2 0 0 - - N 1020,7 0,6 0,0
05.12.2019 01:00:00 -1,8 -1,9 5 3 - - SSW 1020,7 0,4 0,0
05.12.2019 00:00:00 -1,1 -1,2 8 4 - - W 1021,4 0,6 0,0
04.12.2019 23:00:00 -2,5 -2,6 5 3 - - W 1021,5 0,6 -
04.12.2019 22:00:00 -2,3 -2,4 0 0 - - N 1021,2 0,6 -
04.12.2019 21:00:00 -2,2 -2,3 0 0 - - N 1020,9 0,4 0,0
04.12.2019 20:00:00 -1,4 -1,5 0 0 - - N 1020,9 0,2 -
04.12.2019 19:00:00 -1,8 -1,9 0 0 - - N 1020,9 0,4 0,0
04.12.2019 18:00:00 -1,0 -1,1 0 0 - - N 1020,9 0,8 -
04.12.2019 17:00:00 1,0 0,9 0 0 - - N 1020,1 0,4 -
04.12.2019 16:00:00 4,3 3,7 0 0 - - N 1019,7 10 -
04.12.2019 15:00:00 5,2 4,2 0 0 - - N 1019,7 10 -
04.12.2019 14:00:00 6,5 4,7 5 3 - - SE 1019,7 10 -
04.12.2019 13:00:00 5,6 4,2 0 0 - - N 1020,4 10 -
04.12.2019 12:00:00 4,1 4,0 0 0 - - N 1020,4 10 -
04.12.2019 11:00:00 1,4 1,4 0 0 - - N 1020,8 10 -
04.12.2019 10:00:00 -0,5 -0,6 5 3 - - SE 1021,1 10 -
04.12.2019 09:00:00 -1,6 -1,7 0 0 - - N 1020,8 10 -
04.12.2019 08:00:00 -1,8 -1,9 8 4 - - NNW 1020,8 10 -
04.12.2019 07:00:00 -0,5 -0,6 5 3 - - NE 1020,4 10 -
04.12.2019 06:00:00 -1,2 -1,3 8 4 - - NNE 1020,4 9 -
04.12.2019 05:00:00 -0,3 -0,4 0 0 - - N 1020,7 10 -
04.12.2019 04:00:00 -0,6 -0,7 0 0 - - N 1021,1 10 0,0
04.12.2019 03:00:00 -1,4 -1,5 0 0 - - N 1021,7 10 -
04.12.2019 02:00:00 -1,3 -1,4 0 0 - - N 1022,0 9 -
04.12.2019 01:00:00 -1,1 -1,2 0 0 - - N 1022,3 10 -
04.12.2019 00:00:00 -0,4 -0,5 0 0 - - N 1023,0 10 -
03.12.2019 23:00:00 -0,8 -1,1 0 0 - - N 1023,4 10 -
03.12.2019 22:00:00 0,5 0,2 0 0 - - N 1023,4 10 -
03.12.2019 21:00:00 1,3 0,3 0 0 - - N 1023,7 10 -
03.12.2019 20:00:00 2,6 1,1 0 0 - - N 1024,1 10 -
03.12.2019 19:00:00 3,7 0,9 0 0 - - N 1024,7 10 -
03.12.2019 18:00:00 4,3 0,8 0 0 - - N 1024,7 10 -
03.12.2019 17:00:00 4,4 1,1 8 4 - - SW 1024,8 10 -
03.12.2019 16:00:00 5,9 1,6 9 5 - - SW 1025,1 10 -
03.12.2019 15:00:00 7,9 1,9 11 6 - - SW 1025,0 10 -
03.12.2019 14:00:00 8,5 2,5 11 6 - - SW 1025,7 10 -
03.12.2019 13:00:00 8,4 3,0 15 8 - - WSW 1026,0 10 -
03.12.2019 12:00:00 7,9 3,6 11 6 - - WSW 1027,1 10 -
03.12.2019 11:00:00 6,2 3,7 9 5 - - WSW 1028,1 10 -
03.12.2019 10:00:00 5,1 3,8 5 3 - - W 1028,8 10 -
03.12.2019 09:00:00 4,1 3,5 0 0 - - N 1029,2 10 -
03.12.2019 08:00:00 3,5 2,8 0 0 - - N 1029,2 10 -
03.12.2019 07:00:00 3,4 2,7 0 0 - - N 1029,3 10 -
03.12.2019 06:00:00 3,2 2,2 0 0 - - N 1029,2 10 -
03.12.2019 05:00:00 2,6 2,0 5 3 - - SW 1029,2 10 -
03.12.2019 04:00:00 2,6 2,2 5 3 - - SW 1029,8 10 -
03.12.2019 03:00:00 2,6 2,2 0 0 - - N 1030,1 10 -
03.12.2019 02:00:00 2,3 2,2 5 3 - - WSW 1030,5 10 -
03.12.2019 01:00:00 2,3 1,6 0 0 - - N 1031,2 10 -
03.12.2019 00:00:00 1,6 1,3 0 0 - - N 1031,5 10 -
02.12.2019 23:00:00 1,5 1,2 5 3 - - WSW 1031,9 10 -
02.12.2019 22:00:00 0,9 0,8 8 4 - - WSW 1032,0 10 -
02.12.2019 21:00:00 0,4 -0,2 8 4 - - WSW 1032,1 10 -
02.12.2019 20:00:00 -0,4 -1,3 5 3 - - SW 1032,1 10 -
02.12.2019 19:00:00 -0,2 -1,2 8 4 - - W 1032,1 10 -
02.12.2019 18:00:00 1,2 -0,3 8 4 - - WSW 1032,1 10 -
02.12.2019 17:00:00 1,5 -0,1 11 6 - - W 1032,0 10 -
02.12.2019 16:00:00 3,5 1,4 9 5 - - W 1032,0 10 -
02.12.2019 15:00:00 5,2 2,5 5 3 - - W 1031,9 10 -
02.12.2019 14:00:00 5,0 1,7 8 4 - - WSW 1031,9 10 -
02.12.2019 13:00:00 4,3 1,0 9 5 - - WSW 1032,3 10 -
02.12.2019 12:00:00 3,2 0,3 11 6 - - W 1032,6 10 -
02.12.2019 11:00:00 1,3 0,0 9 5 - - WSW 1033,0 10 -
02.12.2019 10:00:00 0,2 -0,5 8 4 - - SW 1032,6 10 -
02.12.2019 09:00:00 -1,5 -1,6 5 3 - - W 1032,7 10 -
02.12.2019 08:00:00 -2,5 -2,8 5 3 - - WSW 1032,3 10 -
02.12.2019 07:00:00 -3,0 -3,1 8 4 - - SSW 1031,7 10 -
02.12.2019 06:00:00 -3,2 -3,6 8 4 - - SW 1031,7 10 -
02.12.2019 05:00:00 -2,5 -3,1 5 3 - - W 1031,3 10 -
02.12.2019 04:00:00 -2,4 -3,0 0 0 - - N 1030,9 10 -
02.12.2019 03:00:00 -1,0 -2,1 0 0 - - N 1030,9 10 -
02.12.2019 02:00:00 -1,3 -1,9 0 0 - - N 1030,6 10 -
02.12.2019 01:00:00 -1,0 -1,8 5 3 - - NW 1030,6 10 -
02.12.2019 00:00:00 -1,0 -2,7 0 0 - - N 1030,2 10 -
01.12.2019 23:00:00 -0,3 -2,0 0 0 - - N 1029,9 10 -
01.12.2019 22:00:00 1,4 -0,5 13 7 - - N 1029,6 10 -
01.12.2019 21:00:00 1,6 0,4 11 6 - - N 1029,5 10 -
01.12.2019 20:00:00 2,0 0,8 11 6 - - NNW 1028,8 10 -
01.12.2019 19:00:00 3,2 1,1 11 6 - - N 1028,5 10 -
01.12.2019 18:00:00 3,6 1,5 15 8 - - N 1027,4 10 -
01.12.2019 17:00:00 4,8 2,2 22 12 - - NNE 1027,1 10 -
01.12.2019 16:00:00 5,2 2,4 13 7 - - N 1026,4 10 -
01.12.2019 15:00:00 5,5 2,7 21 11 - - N 1025,7 10 -
01.12.2019 14:00:00 5,7 2,7 18 10 - - NNE 1025,1 10 -
01.12.2019 13:00:00 5,2 2,5 16 9 - - NNE 1025,1 10 0,0
01.12.2019 12:00:00 5,0 3,0 16 9 - - NNE 1025,1 10 -
01.12.2019 11:00:00 4,6 2,0 15 8 - - NNE 1025,1 10 -
01.12.2019 10:00:00 3,6 1,6 21 11 - - NNE 1024,4 10 -
01.12.2019 09:00:00 3,1 1,5 22 12 - - NNE 1023,7 10 -
01.12.2019 08:00:00 3,3 1,8 15 8 - - NNE 1023,4 10 -
01.12.2019 07:00:00 3,7 2,2 16 9 - - NNE 1022,0 10 -
01.12.2019 06:00:00 3,9 2,4 18 10 - - NNE 1021,3 10 -
01.12.2019 05:00:00 3,2 2,3 16 9 - - NE 1020,7 10 -
01.12.2019 04:00:00 2,4 1,8 15 8 - - NE 1020,7 10 -
01.12.2019 03:00:00 2,4 2,0 18 10 - - NE 1020,7 10 -
01.12.2019 02:00:00 2,1 1,8 15 8 - - NE 1021,4 10 -
01.12.2019 01:00:00 2,0 1,9 13 7 - - NE 1021,4 10 -
01.12.2019 00:00:00 2,0 2,0 15 8 - - NE 1021,7 10 -
30.11.2019 23:00:00 1,8 1,7 11 6 - - NE 1021,7 10 -
30.11.2019 22:00:00 2,2 2,1 13 7 - - NE 1021,4 10 -
30.11.2019 21:00:00 2,5 2,4 15 8 - - ENE 1021,1 10 -
30.11.2019 20:00:00 2,6 2,5 18 10 - - ENE 1020,7 10 -
30.11.2019 19:00:00 3,0 2,9 16 9 - - ENE 1020,4 10 -
30.11.2019 18:00:00 3,2 2,9 16 9 - - E 1020,4 10 -
30.11.2019 17:00:00 3,7 3,4 18 10 - - ENE 1020,0 10 -
30.11.2019 16:00:00 4,1 4,0 21 11 - - ENE 1020,0 10 -
30.11.2019 15:00:00 4,5 4,5 18 10 - - ENE 1020,0 10 -
30.11.2019 14:00:00 4,9 4,9 21 11 - - E 1020,0 10 -
30.11.2019 13:00:00 3,8 3,8 15 8 - - E 1020,4 10 -
30.11.2019 12:00:00 3,0 3,0 18 10 - - ENE 1020,7 10 -
30.11.2019 11:00:00 1,9 1,9 13 7 - - E 1021,4 10 -
30.11.2019 10:00:00 0,7 0,7 15 8 - - ENE 1021,5 1,0 -
30.11.2019 09:00:00 0,5 0,5 13 7 - - E 1021,4 0,6 -
30.11.2019 08:00:00 0,4 0,4 16 9 - - E 1021,1 0,4 -
30.11.2019 07:00:00 0,5 0,5 15 8 - - ENE 1021,1 1,0 -
30.11.2019 06:00:00 0,6 0,6 13 7 - - E 1021,1 1,0 -
30.11.2019 05:00:00 0,2 0,1 11 6 - - E 1021,4 1,2 -
30.11.2019 04:00:00 0,2 0,1 9 5 - - E 1021,4 0,8 0,0

tt = Température de l'air
td = dewpoint
ff = Vitesse du vent
fx = gusts
dd = Direction du vent
ppp = reduced air pressure
vv = visibility
rr = Quantités de précipitations

stations d'obs. à proximité